Horuphav, Denmark
Current Conditions -  °F | °C
As of 4:20 PM on Friday 31 Oct 2014 (Local Time) from EKSB Reporting Station
Haze Haze  
Wind Chill: 55°   Ceiling: 500
Heat Index: 55°   Visibility: 1.8mi
Dew Point: 54°   Wind: 6mph
Humidity: 94%   Direction: 150°SSE
Pressure: 30.12"   Gusts: NA
Location:  54.91°N, 9.9°E
Report Text: EKSB 311520Z 15005KT 3000 BR BKN005 13/12 Q1020
Loading
Personal Weather Stations






























Interactive Weather Map
Tropical Storm Tracking
New forecast layout! Learn more

10-Day Weather Forecast

Advertisements
Track Severe Weather on mobile